Regional Weather Roundup
Issued by NWS Charleston, SC

Current Version | Previous Version | Graphics & Text | Print | Product List | Glossary On
Versions: 1 2 3 4 5 6 7 8 9 10 11 12 13 14 15 16 17 18 19 20 21 22 23 24 25 26 27 28 29 30 31 32 33 34 35 36 37 38 39 40 41 42 43 44 45 46 47 48 49 50
000 ASUS42 KCHS 281528 RWRCHS REGIONAL WEATHER ROUNDUP NATIONAL WEATHER SERVICE CHARLESTON SC 1100 AM EDT WED SEP 28 2016 NOTE: "FAIR" INDICATES FEW OR NO CLOUDS BELOW 12,000 FEET WITH NO SIGNIFICANT WEATHER AND/OR OBSTRUCTIONS TO VISIBILITY. NOT ALL STATIONS ARE QUALITY CONTROLLED. USE DATA WITH CAUTION... ESPECIALLY DEWPOINT OBSERVATIONS. SCZ027-030-031-034>040-042>050-281600- ...SOUTHEAST SOUTH CAROLINA... CITY SKY/WX TMP DP RH WIND PRES REMARKS N CHARLESTON PTSUNNY 85 71 63 SW8 29.97R HX 90 WATERFRONT PRK N/A 82 74 77 SW5 29.95R MOUNT PLEASANT FAIR 82 73 74 S7 29.97F JOHNS ISLAND FAIR 84 75 74 S10 29.97S HX 92 PINOPOLIS N/A 81 73 78 VRB3 29.90R MONCKS CORNER FAIR 82 70 65 S7 29.96F SUMMERVILLE NOT AVBL BEAUFORT MCAS MOSUNNY 84 70 62 SW8 29.97S BEAUFORT ARPT FAIR 82 72 69 SW7 29.97S HILTON HEAD IS MOSUNNY 88 73 62 SW9 29.98S HX 96 WALTERBORO MOSUNNY 86 72 62 S9 29.97F HX 92 ALLENDALE FAIR 84 72 65 VRB6 29.95S ...SOUTHERN MIDLANDS AND PEE DEE... CITY SKY/WX TMP DP RH WIND PRES REMARKS GEORGETOWN FAIR 82 72 69 SW7 29.98S KINGSTREE FAIR 82 70 65 S6 29.96S ORANGEBURG SUNNY 82 71 69 SW8 29.96R BARNWELL NOT AVBL AIKEN FAIR 81 68 65 S6 29.99R MANNING FAIR 81 72 74 SW6 29.96S COLUMBIA MOSUNNY 84 70 62 W7 29.94R SUMTER MOSUNNY 83 71 66 SW8 29.93R FLORENCE SUNNY 82 71 69 S9 29.96R MYRTLE BEACH MOSUNNY 84 66 54 S12 29.99S N MYRTLE BEACH SUNNY 82 72 71 S10 29.98R $$ GAZ063-065-086>088-099>101-113>116-118-119-134>141-150-281600- ...SOUTHEAST GEORGIA... CITY SKY/WX TMP DP RH WIND PRES REMARKS SAVANNAH ARPT PTSUNNY 84 70 62 S7 29.97S HUNTER AAF MOSUNNY 86 78 77 W5 29.95S HX 97 FORT STEWART CLOUDY 81 71 71 VRB1 29.96R STATESBORO SUNNY 86 73 64 SW6 29.97S HX 94 SYLVANIA NOT AVBL CLAXTON FAIR 83 73 69 S5 29.97S ...CSRA...CENTRAL AND FAR SOUTHEAST GEORGIA... CITY SKY/WX TMP DP RH WIND PRES REMARKS THOMSON SUNNY 86 72 64 W3 29.99S HX 92 AUGUSTA-BUSH MOSUNNY 81 70 69 S5 29.94R AUGUSTA-DANIEL MOSUNNY 82 67 60 VRB3 29.96R SWAINSBORO FAIR 82 70 65 W5 29.98R VIDALIA MOSUNNY 86 75 70 S5 29.97S HX 95 EASTMAN FAIR 87 60 39 CALM 29.99S HAZLEHURST FAIR 85 75 72 N5 29.97S HX 93 ALMA MOSUNNY 80 71 74 SW6 29.98R WAYCROSS MOSUNNY 87 76 69 SW6 29.99S HX 97 JESUP FAIR 86 75 70 S7 29.98S HX 95 BAXLEY FAIR 82 77 83 S7 29.98S HX 91 BRUNSWICK SUNNY 86 73 66 SW5 29.99S HX 93 SAINT SIMONS SUNNY 84 71 65 VRB6 29.98R $$ SCZ027-028-034-036>038-045-046-048>050-GAZ119-141-281600- ...LAKE AND SUPPLEMENTAL COASTAL OBSERVATIONS... STATION/POSITION TIME TEMP WIND PRES WAVE SWELL AIR SEA DIR/SP/G HT/PER HT/PER/DIR (UTC) (F) (DEG/KT/KT) (MB) (FT/S) (FT/S/D) WINYAH BAY 1430 81 210/ 5 1014.0S LAKE MURRAY 1520 78 140/ 2/ 3 1013.5S ACE BASIN NERRS 1445 83 240/ 2 1015.0S FORT PULASKI 1500 83 81 200/ 4/ 6 1015.4 SAPELO ISLAND 1500 84 CALM 1015.0 $$ ANZ835-935-AMZ111-154-330-350-352-354-370-450-454-472-281600- ...C-MAN AND BUOY OBSERVATIONS... STATION/POSITION TIME TEMP WIND PRES WAVE SWELL AIR SEA DIR/SP/G HT/PER HT/PER/DIR (UTC) (F) (DEG/KT/KT) (MB) (FT/S) (FT/S/D) BUOY 41004 1450 81 82 230/ 6/ 6 1014.8R 3/ 7 3/100/ 7 BUOY 41008 1450 81 82 220/ 6/ 8 1015.1R 2/13 2/100/13 FOLLY BEACH CMAN 1500 81 220/ 10/ 11 1015.2R CAPERS NEARSHORE 1408 80 81 230/ 10/ 12 1014.8R FRIPP NEARSHORE 1508 86 81 230/ 8/ 10 1015.2R STATION/POSITION TIME TEMP WIND PRES WAVE SWELL AIR SEA DIR/SP/G HT/PER HT/PER/DIR (UTC) (F) (DEG/KT/KT) (MB) (FT/S) (FT/S/D) 5E ST. MARYS GA 1501 82 N/A 2/13 2/ 90/13 FRYING PAN BUOY 1510 81 82 CALM / 2 1015.4 BUOY 41025 1450 77 83 20/ 10/ 12 1015.3R 4/ 8 3/ 70/ 8 CAPE LOOKOUT NC 1500 78 80/ 6/ 6 1015.2R BUOY 41002 1450 82 83 200/ 8/ 10 1015.5S 4/11 3/ 40/11 BUOY 41010 NOT AVBL ST AUGUSTINE FL 1500 85 84 220/ 6/ 8 1016.9R $$

USA.gov is the U.S. government's official web portal to all federal, state and local government web resources and services.